Warning: Javascript must be enabled to use all the features on this page!


Page Loading - Please Wait...

Click to hideNews Bulletins

Peak Streamflow for the Nation

USGS 05124480 KAWISHIWI RIVER NEAR ELY, MN

Lake County, Minnesota
Hydrologic Unit Code 09030001
Latitude  47°55'22", Longitude  91°32'06" NAD27
Drainage area 254  square miles
Output formats
Table
Graph
Tab-separated file
peakfq (watstore) format
Reselect output format
Water
Year
Date Gage
Height
(feet)
Stream-
flow
(cfs)
1967 1967-04-30 5.39 1,090
1968 1968-06-18 5.54 1,200
1969 1969-04-29 5.88 1,540
1970 1970-06-13 5.83 1,470
1971 1971-05-01   1,5201
1972 1972-05-12 5.75 1,380
1973 1973-05-11 4.81 690
1974 1974-05-27 5.11 890
1975 1975-05-08 5.32 1,050
1976 1976-04-24 5.92 1,720
1977 1977-09-30   1,000
1978 1978-06-08 5.02 829
1979 1979-05-11 5.66 1,340
1980 1980-09-24 4.95 782
1981 1981-04-30 5.56 1,220
1982 1982-05-19 5.40 1,110
1983 1983-05-13 4.70 620
1984 1984-05-12 5.24 960
1985 1985-05-12 4.78 669
1986 1986-05-03 5.11 876
1987 1987-08-15 4.66 573
1988 1988-08-27 5.81 1,540
1989 1989-05-07 5.35 1,080
1990 1990-05-02 5.54 1,260
1991 1991-05-08 4.55 512
1992 1992-05-14 5.29 1,020
1993 1993-05-11 4.68 585
1994 1994-06-20 5.29 1,020
1995 1995-05-22 4.29 400
1996 1996-05-20 5.61 1,330
1997 1997-05-02 4.92 738
1998 1998-04-25 4.45 461
1999 1999-07-26 4.80 658
2000 2000-05-14 4.45 461
2001 2001-05-04 6.07 1,870
2002 2002-05-15 4.02 280
2003 2003-07-20 3.99 270
2004 2004-04-30 5.01 801
2005 2005-05-19 4.82 665
2006 2006-05-17 4.90 724
2007 2007-06-26 4.13 313
2008 2008-05-13 5.43 1,150
2009 2009-05-07 5.13 980
2010 2010-06-17 3.26 102
2011 2011-05-11 4.53 556
2012 2012-06-24 4.91 793
2013 2013-05-23 5.13 980
2014 2014-05-21 5.50 1,360
2015 2015-06-10 4.67 619
2016 2016-04-29 5.05 909
2017 2017-05-05 5.06 918
2018 2018-07-09 4.57 556
2019 2019-05-09 5.00  
2020 2020-05-06 4.57 556
?
  Peak Streamflow Qualification Codes.